Location: Heilbronn
(49.1548°N, 9.2780°E)
Time: 11:53:49
(UTC+02:00)

ISS - Visible Passes

Search period start: 13 May 2021 00:00
Search period end: 23 May 2021 00:00
Orbit: 417 x 422 km, 51.6° (Epoch: 13 May)

Date Brightness Start Highest point End Pass type
(mag) Time Alt. Az. Time Alt. Az. Time Alt. Az.
13 May -0.9 00:32:07 10° ENE 00:32:07 10° ENE 00:32:08 10° ENE visible
13 May -3.1 02:05:02 45° NW 02:05:41 54° N 02:09:01 10° ENE visible
13 May -3.6 03:39:20 10° WNW 03:42:44 75° NNE 03:46:06 10° ESE visible
14 May -3.1 01:18:39 53° NNE 01:18:39 53° NNE 01:21:33 10° ENE visible
14 May -3.3 02:51:54 10° WNW 02:55:15 63° N 02:58:37 10° E visible
14 May -3.4 04:28:47 10° WNW 04:32:01 44° SSW 04:35:15 10° SE visible
14 May -3.2 22:50:55 10° SW 22:54:01 34° SSE 22:55:36 22° E visible
15 May -3.5 00:27:20 10° W 00:30:42 70° NNW 00:34:05 10° ENE visible
15 May -3.1 02:04:25 10° WNW 02:07:45 56° N 02:11:06 10° E visible
15 May -3.8 03:41:18 10° WNW 03:44:39 63° SSW 03:47:59 10° SE visible
15 May -2.6 22:03:57 10° SSW 22:06:42 24° SE 22:09:29 10° E visible
15 May -3.8 23:39:52 10° WSW 23:43:14 87° NNW 23:46:38 10° ENE visible
16 May -3.0 01:16:56 10° WNW 01:20:15 53° N 01:23:35 10° E visible
16 May -3.9 02:53:50 10° WNW 02:57:14 85° SSW 03:00:37 10° ESE visible
16 May -2.4 04:31:06 10° W 04:33:42 21° SW 04:36:17 10° S visible
16 May -3.9 22:52:27 10° WSW 22:55:48 71° SSE 22:59:10 10° ENE visible
17 May -3.0 00:29:25 10° W 00:32:44 54° N 00:36:04 10° ENE visible
17 May -3.7 02:06:24 10° WNW 02:09:47 76° NNE 02:13:09 10° ESE visible
17 May -3.0 03:43:24 10° W 03:46:24 30° SW 03:49:24 10° SSE visible
17 May -3.6 22:05:08 10° SW 22:08:24 50° SSE 22:11:42 10° ENE visible
17 May -3.2 23:41:54 10° W 23:45:13 59° N 23:48:35 10° ENE visible
18 May -3.4 01:18:56 10° WNW 01:22:17 63° N 01:22:55 50° ENE visible
18 May -3.5 22:54:22 10° W 22:57:44 70° NNW 23:01:06 10° ENE visible
19 May -3.1 00:31:28 10° WNW 00:34:47 56° N 00:36:31 25° ENE visible
19 May -1.7 02:08:19 10° WNW 02:09:26 19° WNW 02:09:26 19° WNW visible
19 May -3.7 22:06:53 10° WSW 22:10:15 86° NNW 22:13:39 10° ENE visible
19 May -3.0 23:43:57 10° WNW 23:47:16 53° N 23:50:21 12° E visible
20 May -3.0 01:20:52 10° WNW 01:23:16 43° WNW 01:23:16 43° WNW visible
20 May -3.0 22:56:26 10° W 22:59:46 54° N 23:03:05 10° ENE visible
21 May -3.7 00:33:24 10° WNW 00:36:47 76° NNE 00:37:11 64° ENE visible
21 May -3.1 22:08:54 10° W 22:12:14 59° N 22:15:35 10° ENE visible
21 May -3.4 23:45:56 10° WNW 23:49:18 63° N 23:51:10 24° E visible
22 May -1.8 01:22:50 10° WNW 01:24:06 20° W 01:24:06 20° W visible
22 May -3.1 22:58:27 10° WNW 23:01:47 56° N 23:05:07 10° E visible
